385P/Hill (2010)

Japanese version
Home page
Updated on September 28, 2019

---------------------------------------------------------------------

* Profile

Designation 385P/2010 U2
Discovery Date October 17, 2010
Magnitude 18.2 mag
Discoverer R. E. Hill (Catalina)

* Pictures

* Orbital Elements

Epoch 2010 Nov. 20.0 TT = JDT 2455520.5                                         
T 2010 Nov.  9.30872 TT                                 Williams                
q   2.5526931            (2000.0)            P               Q                  
n   0.11151603     Peri.   44.24132     +0.74872796     -0.66272043             
a   4.2747546      Node   357.14929     +0.49865395     +0.57743994             
e   0.4028445      Incl.   16.86049     +0.43675013     +0.47682780             
P   8.84                                                                        
From 267 observations 2010 Oct. 1-2019 Aug. 7, mean residual 0".6.              

* Magnitudes Graph

        m1 = 12.7 + 5 log d + 10.0 log r

---------------------------------------------------------------------

The orbital elements are published on M.P.E.C. 2019-P61.
The magnitudes graphs are made with Comet for Windows.

---------------------------------------------------------------------

Copyright(C) Seiichi Yoshida (comet@aerith.net). All rights reserved.